Regional Weather Roundup
Issued by NWS

Home | Current Version | Previous Version | Graphics & Text | Print | Product List | Glossary On
Versions: 1 2 3 4 5 6 7 8 9 10 11 12 13 14 15 16 17 18 19 20 21 22 23 24 25 26 27 28 29 30 31 32 33 34 35 36 37 38 39 40 41 42 43 44 45 46 47 48 49 50
000
ASUS43 KDMX 310507
RWRIA

WEATHER ROUNDUP FOR IOWA
NATIONAL WEATHER SERVICE DES MOINES IA
1200 AM CDT THU JUL 31 2014

NOTE: "FAIR" INDICATES FEW OR NO CLOUDS BELOW 12,000 FEET WITH NO
SIGNIFICANT WEATHER AND/OR OBSTRUCTIONS TO VISIBILITY.

* - THESE STATIONS ARE NOT NWS STATIONS...THUS NOT UNDER NWS
QUALITY CONTROL.  THEY ALSO DO NOT REPORT WEATHER SUCH
AS PRECIPITATION OR FOG.

IAZ001>003-012>014-020>022-031>034-043>046-310600-
   NORTHWEST IOWA

CITY           SKY/WX    TMP DP  RH WIND       PRES   REMARKS
CARROLL *      CLOUDY    57  55  94 W3        30.11S
CHEROKEE *     CLEAR     59  57  94 CALM      30.11S
DENISON *      MOCLDY    57  57 100 CALM      30.10S
LE MARS *      CLEAR     57  57 100 CALM      30.12R
ORANGE CITY *  CLEAR     66  54  63 CALM      30.11F
SHELDON *      CLEAR     55  55 100 CALM      30.10F
SIOUX CITY     CLEAR     59  56  89 CALM      30.11S
SPENCER        CLEAR     56  54  93 CALM      30.11S
STORM LAKE *   CLEAR     64  59  82 W5        30.12S
$$

IAZ055>058-069>071-079>083-090>094-310600-
   SOUTHWEST IOWA

CITY           SKY/WX    TMP DP  RH WIND       PRES   REMARKS
ATLANTIC *     CLOUDY    57  55  94 CALM      30.11S
AUDUBON *      CLEAR     57  54  88 CALM      30.13S
CLARINDA *     CLEAR     57  55  94 CALM      30.13S
COUNCIL BLFS *   N/A     63  57  82 SE5       30.11R
CRESTON *      CLEAR     59  57  94 CALM      30.12S
HARLAN  *      CLEAR     57  55  94 CALM      30.15S
LAMONI         CLEAR     63  56  78 CALM      30.11S
RED OAK *      CLEAR     57  54  88 CALM      30.11F
SHENANDOAH *   CLEAR     61  57  88 CALM      30.12S
$$

IAZ047>049-059>061-072>074-084-310600-
   CENTRAL IOWA

CITY           SKY/WX    TMP DP  RH WIND       PRES   REMARKS
AMES           CLEAR     60  57  89 SW6       30.09S
ANKENY *       CLEAR     59  57  94 CALM      30.09S
CHARITON *     CLEAR     63  59  88 W6        30.11R
DES MOINES     CLEAR     69  56  62 CALM      30.09S
GRINNELL*      PTCLDY    63  59  88 W3        30.10S
KNOXVILLE *    CLEAR     63  57  82 W7        30.09R
MARSHALLTOWN   CLEAR     61  58  90 W3        30.09R
PELLA *        CLEAR     65  58  77 CALM      30.10S
PERRY *          N/A     59  57  94 W5        30.10S
$$

IAZ004>006-015-016-023>025-035-036-310600-
   NORTH CENTRAL IOWA

CITY           SKY/WX    TMP DP  RH WIND       PRES   REMARKS
ALGONA *       CLEAR     63  57  82 NW3       30.10S
CLARION *      CLEAR     59  59 100 CALM      30.10S
ESTHERVILLE    CLEAR     57  54  89 W3        30.10F
FORT DODGE *   CLEAR     59  57  94 CALM      30.11S
MASON CITY     CLEAR     58  57  97 CALM      30.10S
FOREST CITY *  CLEAR     55  55 100 CALM      30.10S
IOWA FALLS *     N/A     61  57  88 CALM      30.10S
$$

IAZ007>011-017>019-026>030-037>042-050>054-066-310600-
   NORTHEAST IOWA

CITY           SKY/WX    TMP DP  RH WIND       PRES   REMARKS
CEDAR RAPIDS   CLEAR     64  60  87 NW7       30.07R
CHARLES CITY * CLEAR     61  59  94 W5        30.09S
CLINTON *      CLEAR     59  55  88 N3        30.08F
DECORAH *      CLEAR     64  59  82 CALM      30.06S
DUBUQUE        CLEAR     59  57  93 SW3       30.07S
MONTICELLO *   CLEAR     59  59 100 CALM      30.06S
OELWEIN *      PTCLDY    63  61  94 W7        30.08S
WATERLOO       CLEAR     65  60  84 W5        30.07S
$$

IAZ064-065-067-068-078-310600-
   EAST CENTRAL IOWA

CITY           SKY/WX    TMP DP  RH WIND       PRES   REMARKS
DAVENPORT      CLEAR     59  56  89 NW5       30.07S
IOWA CITY      CLEAR     67  61  81 CALM      30.08S
MT. PLEASANT * CLEAR     63  61  94 W3        30.08S
MUSCATINE *    CLEAR     64  61  88 CALM      30.07S
QUAD CITIES    CLEAR     62  58  86 CALM      30.06R
$$

IAZ062-063-075>077-085>089-095>099-310600-
   SOUTHEAST IOWA

CITY           SKY/WX    TMP DP  RH WIND       PRES   REMARKS
BURLINGTON     CLEAR     64  60  87 NW5       30.07S
FAIRFIELD *    CLEAR     63  59  88 SW6       30.09R
FORT MADISON * CLEAR     64  63  94 W3        30.09R
KEOKUK *       CLEAR     64  61  88 CALM      30.07S
OSKALOOSA *      N/A     63  59  88 W3        30.09S
CENTERVILLE *  CLEAR     57  57 100 W3        30.12R
OTTUMWA        CLEAR     60  58  92 W5        30.08S
WASHINGTON *   CLEAR     63  61  94 W6        30.08S
$$

ABBREVIATIONS USED IN REMARKS
   TC - TEMPERATURES IN CELSIUS
  WCI - WIND CHILL INDEX
   HX - HEAT INDEX
  VSB - VISIBILITY
$$




USA.gov is the U.S. government's official web portal to all federal, state and local government web resources and services.